• In Portugal
  • List of Countries
  • For 7 days
  • Water Temperature
  • Satellite Maps
  • Weather Map
  • Weather Widgets
  • user-avatar
    Login

    Hourly Weather Gobabis

    Today, 11 December, Monday

    Time Temperature Precipitation Wind Pressure Humidity
    00:00 +28°C° 0.1 mm 4 mps 640 mmHg 29%
    01:00 +28°C° 0 mm 5 mps 640 mmHg 29%
    02:00 +28°C° 0.1 mm 4 mps 640 mmHg 30%
    03:00 +27°C° 0.1 mm 4 mps 640 mmHg 31%
    04:00 +27°C° 0.1 mm 4 mps 639 mmHg 31%
    05:00 +27°C° 0 mm 4 mps 640 mmHg 27%
    06:00 +28°C° 0 mm 4 mps 640 mmHg 23%
    07:00 +29°C° 0 mm 5 mps 641 mmHg 16%
    08:00 +30°C° 0 mm 4 mps 641 mmHg 16%
    09:00 +30°C° 0 mm 3 mps 641 mmHg 16%
    10:00 +31°C° 0 mm 2 mps 641 mmHg 16%
    11:00 +32°C° 0 mm 2 mps 641 mmHg 15%
    12:00 +35°C° 0 mm 2 mps 640 mmHg 15%
    13:00 +36°C° 0 mm 2 mps 640 mmHg 15%
    14:00 +36°C° 0 mm 2 mps 640 mmHg 15%
    15:00 +36°C° 0 mm 2 mps 639 mmHg 15%
    16:00 +36°C° 0 mm 2 mps 639 mmHg 14%
    17:00 +35°C° 0 mm 3 mps 639 mmHg 15%
    18:00 +34°C° 0 mm 3 mps 639 mmHg 17%
    19:00 +34°C° 0 mm 4 mps 639 mmHg 18%
    20:00 +33°C° 0 mm 4 mps 639 mmHg 19%
    21:00 +32°C° 0 mm 4 mps 639 mmHg 20%
    22:00 +32°C° 0 mm 4 mps 639 mmHg 21%
    23:00 +30°C° 0 mm 5 mps 639 mmHg 21%

    Tomorrow, 12 December, Tuesday

    Time Temperature Precipitation Wind Pressure Humidity
    00:00 +29°C° 0 mm 5 mps 639 mmHg 21%
    01:00 +28°C° 0 mm 6 mps 639 mmHg 21%
    02:00 +28°C° 0 mm 6 mps 638 mmHg 19%
    03:00 +27°C° 0 mm 5 mps 638 mmHg 17%
    04:00 +26°C° 0 mm 5 mps 638 mmHg 15%
    05:00 +26°C° 0 mm 5 mps 638 mmHg 14%
    06:00 +26°C° 0 mm 5 mps 639 mmHg 13%
    07:00 +27°C° 0 mm 5 mps 639 mmHg 12%
    08:00 +28°C° 0 mm 4 mps 640 mmHg 12%
    09:00 +29°C° 0 mm 4 mps 640 mmHg 12%
    10:00 +31°C° 0 mm 3 mps 641 mmHg 11%
    11:00 +31°C° 0 mm 3 mps 641 mmHg 13%
    12:00 +33°C° 0 mm 4 mps 640 mmHg 15%
    13:00 +33°C° 0 mm 4 mps 640 mmHg 16%
    14:00 +33°C° 0 mm 4 mps 640 mmHg 17%
    15:00 +33°C° 0 mm 4 mps 639 mmHg 17%
    16:00 +33°C° 0 mm 4 mps 639 mmHg 18%
    17:00 +32°C° 0 mm 4 mps 639 mmHg 19%
    18:00 +30°C° 0 mm 4 mps 639 mmHg 19%
    19:00 +29°C° 0 mm 5 mps 639 mmHg 19%
    20:00 +28°C° 0 mm 4 mps 639 mmHg 23%
    21:00 +27°C° 0 mm 3 mps 639 mmHg 26%
    22:00 +27°C° 0 mm 3 mps 640 mmHg 29%
    23:00 +26°C° 0 mm 2 mps 639 mmHg 32%

    Day after tomorrow, 13 December, Wednesday

    Time Temperature Precipitation Wind Pressure Humidity
    00:00 +25°C° 0 mm 2 mps 639 mmHg 35%
    01:00 +25°C° 0 mm 2 mps 638 mmHg 39%
    02:00 +25°C° 0 mm 2 mps 638 mmHg 37%
    03:00 +25°C° 0 mm 2 mps 638 mmHg 35%
    04:00 +25°C° 0 mm 3 mps 639 mmHg 33%
    05:00 +25°C° 0 mm 3 mps 639 mmHg 31%
    06:00 +26°C° 0 mm 3 mps 640 mmHg 28%
    07:00 +26°C° 0 mm 3 mps 640 mmHg 25%
    08:00 +28°C° 0 mm 2 mps 640 mmHg 22%
    09:00 +29°C° 0 mm 2 mps 641 mmHg 20%
    10:00 +30°C° 0 mm 1 mps 641 mmHg 18%
    11:00 +31°C° 0 mm 1 mps 641 mmHg 16%
    12:00 +32°C° 0 mm 1 mps 640 mmHg 15%
    13:00 +34°C° 0 mm 1 mps 640 mmHg 14%
    14:00 +35°C° 0 mm 2 mps 640 mmHg 13%
    15:00 +35°C° 0 mm 2 mps 639 mmHg 12%
    16:00 +35°C° 0 mm 3 mps 639 mmHg 11%
    17:00 +34°C° 0 mm 3 mps 639 mmHg 12%
    18:00 +34°C° 0 mm 3 mps 639 mmHg 12%
    19:00 +33°C° 0 mm 3 mps 639 mmHg 12%
    20:00 +31°C° 0 mm 3 mps 640 mmHg 12%
    21:00 +32°C° 0 mm 4 mps 640 mmHg 12%
    22:00 +30°C° 0 mm 5 mps 640 mmHg 13%
    23:00 +29°C° 0 mm 6 mps 640 mmHg 14%

    14 December, Thursday

    Time Temperature Precipitation Wind Pressure Humidity
    00:00 +28°C° 0 mm 6 mps 640 mmHg 16%
    01:00 +26°C° 0 mm 7 mps 640 mmHg 18%
    02:00 +26°C° 0 mm 7 mps 639 mmHg 16%
    03:00 +24°C° 0 mm 7 mps 639 mmHg 14%
    04:00 +23°C° 0 mm 7 mps 639 mmHg 13%
    05:00 +24°C° 0 mm 8 mps 640 mmHg 12%
    06:00 +24°C° 0 mm 8 mps 640 mmHg 11%
    07:00 +26°C° 0 mm 9 mps 641 mmHg 10%
    08:00 +28°C° 0 mm 8 mps 641 mmHg 11%
    09:00 +31°C° 0 mm 8 mps 642 mmHg 13%
    10:00 +33°C° 0 mm 7 mps 642 mmHg 14%
    11:00 +33°C° 0 mm 6 mps 641 mmHg 14%
    12:00 +34°C° 0 mm 4 mps 641 mmHg 14%
    13:00 +35°C° 0 mm 3 mps 641 mmHg 14%
    14:00 +35°C° 0 mm 4 mps 640 mmHg 16%
    15:00 +35°C° 0 mm 4 mps 640 mmHg 17%
    16:00 +35°C° 0 mm 5 mps 639 mmHg 19%
    17:00 +34°C° 0 mm 5 mps 640 mmHg 21%
    18:00 +33°C° 0 mm 5 mps 640 mmHg 23%
    19:00 +32°C° 0 mm 4 mps 640 mmHg 26%
    20:00 +30°C° 0 mm 5 mps 640 mmHg 26%
    21:00 +29°C° 0 mm 5 mps 640 mmHg 27%
    22:00 +29°C° 0 mm 5 mps 641 mmHg 27%
    23:00 +28°C° 0 mm 5 mps 640 mmHg 28%

    15 December, Friday

    Time Temperature Precipitation Wind Pressure Humidity
    00:00 +27°C° 0 mm 5 mps 640 mmHg 29%
    01:00 +27°C° 0 mm 4 mps 640 mmHg 30%
    02:00 +26°C° 0 mm 5 mps 639 mmHg 29%
    03:00 +26°C° 0 mm 5 mps 639 mmHg 28%
    04:00 +25°C° 0 mm 5 mps 639 mmHg 27%
    05:00 +26°C° 0 mm 6 mps 640 mmHg 24%
    06:00 +27°C° 0 mm 7 mps 641 mmHg 20%
    07:00 +28°C° 0 mm 8 mps 642 mmHg 17%
    08:00 +31°C° 0 mm 8 mps 642 mmHg 16%
    09:00 +33°C° 0 mm 7 mps 642 mmHg 16%
    10:00 +35°C° 0 mm 7 mps 643 mmHg 15%
    11:00 +36°C° 0 mm 7 mps 642 mmHg 15%
    12:00 +36°C° 0 mm 6 mps 642 mmHg 14%
    13:00 +38°C° 0 mm 6 mps 642 mmHg 14%
    14:00 +37°C° 0 mm 5 mps 641 mmHg 14%
    15:00 +37°C° 0 mm 5 mps 641 mmHg 14%
    16:00 +37°C° 0 mm 4 mps 640 mmHg 14%
    17:00 +36°C° 0 mm 4 mps 640 mmHg 15%
    18:00 +35°C° 0 mm 3 mps 640 mmHg 16%
    19:00 +35°C° 0 mm 3 mps 640 mmHg 18%
    20:00 +34°C° 0 mm 3 mps 641 mmHg 19%
    21:00 +32°C° 0 mm 2 mps 641 mmHg 21%
    22:00 +31°C° 0 mm 2 mps 641 mmHg 22%
    23:00 +31°C° 0 mm 3 mps 640 mmHg 23%

    16 December, Saturday

    Time Temperature Precipitation Wind Pressure Humidity
    00:00 +30°C° 0 mm 3 mps 640 mmHg 24%
    01:00 +29°C° 0 mm 4 mps 639 mmHg 25%
    02:00 +29°C° 0 mm 3 mps 639 mmHg 27%
    03:00 +28°C° 0 mm 3 mps 639 mmHg 29%
    04:00 +27°C° 0 mm 3 mps 639 mmHg 31%
    05:00 +28°C° 0 mm 4 mps 640 mmHg 31%
    06:00 +28°C° 0 mm 5 mps 641 mmHg 31%
    07:00 +29°C° 0 mm 5 mps 641 mmHg 32%
    08:00 +32°C° 0 mm 6 mps 642 mmHg 30%
    09:00 +33°C° 0 mm 8 mps 642 mmHg 28%
    10:00 +35°C° 0 mm 9 mps 642 mmHg 27%
    11:00 +35°C° 0 mm 9 mps 642 mmHg 27%
    12:00 +35°C° 0 mm 8 mps 641 mmHg 27%
    13:00 +34°C° 0 mm 8 mps 641 mmHg 28%
    14:00 +35°C° 0 mm 8 mps 640 mmHg 27%
    15:00 +35°C° 0 mm 7 mps 640 mmHg 27%
    16:00 +35°C° 0 mm 7 mps 640 mmHg 26%
    17:00 +34°C° 0 mm 7 mps 640 mmHg 28%
    18:00 +33°C° 0 mm 6 mps 640 mmHg 31%
    19:00 +32°C° 0 mm 6 mps 640 mmHg 33%
    20:00 +30°C° 0.3 mm 6 mps 640 mmHg 38%
    21:00 +28°C° 0.3 mm 7 mps 640 mmHg 43%
    22:00 +27°C° 0.3 mm 8 mps 640 mmHg 48%
    23:00 +26°C° 0.5 mm 7 mps 640 mmHg 48%
    Show more